• In Belarus
  • List of Countries
  • For 7 days
  • Water Temperature
  • Satellite Maps
  • Weather Map
  • Weather Widgets
  • user-avatar
    Login

    Hourly Weather Asfi

    Today, 21 August, Tuesday

    Time Temperature Precipitation Wind Pressure Humidity
    00:00 +32°C° 0 mm 6 mps 739 mmHg 53%
    01:00 +30°C° 0 mm 5 mps 739 mmHg 55%
    02:00 +30°C° 0 mm 5 mps 739 mmHg 55%
    03:00 +30°C° 0 mm 4 mps 739 mmHg 56%
    04:00 +29°C° 0 mm 4 mps 739 mmHg 56%
    05:00 +29°C° 0 mm 4 mps 739 mmHg 55%
    06:00 +29°C° 0 mm 4 mps 739 mmHg 54%
    07:00 +29°C° 0 mm 5 mps 740 mmHg 52%
    08:00 +32°C° 0 mm 5 mps 740 mmHg 47%
    09:00 +33°C° 0 mm 4 mps 740 mmHg 42%
    10:00 +34°C° 0 mm 4 mps 740 mmHg 37%
    11:00 +35°C° 0 mm 4 mps 740 mmHg 33%
    12:00 +36°C° 0 mm 3 mps 740 mmHg 29%
    13:00 +37°C° 0 mm 3 mps 740 mmHg 25%
    14:00 +38°C° 0 mm 3 mps 740 mmHg 23%
    15:00 +38°C° 0 mm 4 mps 739 mmHg 21%
    16:00 +40°C° 0 mm 4 mps 739 mmHg 19%
    17:00 +38°C° 0 mm 4 mps 739 mmHg 20%
    18:00 +37°C° 0 mm 4 mps 739 mmHg 21%
    19:00 +37°C° 0 mm 4 mps 739 mmHg 22%
    20:00 +36°C° 0 mm 4 mps 739 mmHg 25%
    21:00 +35°C° 0 mm 5 mps 740 mmHg 28%
    22:00 +34°C° 0 mm 5 mps 740 mmHg 32%
    23:00 +33°C° 0 mm 5 mps 740 mmHg 38%

    Tomorrow, 22 August, Wednesday

    Time Temperature Precipitation Wind Pressure Humidity
    00:00 +32°C° 0 mm 5 mps 740 mmHg 44%
    01:00 +30°C° 0 mm 5 mps 740 mmHg 50%
    02:00 +30°C° 0 mm 5 mps 740 mmHg 51%
    03:00 +30°C° 0 mm 5 mps 740 mmHg 52%
    04:00 +29°C° 0 mm 4 mps 739 mmHg 53%
    05:00 +29°C° 0 mm 4 mps 740 mmHg 52%
    06:00 +29°C° 0 mm 4 mps 740 mmHg 51%
    07:00 +29°C° 0 mm 4 mps 740 mmHg 50%
    08:00 +32°C° 0 mm 4 mps 740 mmHg 44%
    09:00 +33°C° 0 mm 4 mps 741 mmHg 38%
    10:00 +35°C° 0 mm 4 mps 741 mmHg 32%
    11:00 +36°C° 0 mm 3 mps 741 mmHg 28%
    12:00 +37°C° 0 mm 3 mps 741 mmHg 24%
    13:00 +38°C° 0 mm 2 mps 741 mmHg 20%
    14:00 +38°C° 0 mm 2 mps 740 mmHg 19%
    15:00 +39°C° 0 mm 2 mps 740 mmHg 18%
    16:00 +39°C° 0 mm 2 mps 740 mmHg 17%
    17:00 +39°C° 0 mm 2 mps 740 mmHg 17%
    18:00 +38°C° 0 mm 2 mps 740 mmHg 17%
    19:00 +38°C° 0 mm 3 mps 740 mmHg 18%
    20:00 +37°C° 0 mm 3 mps 740 mmHg 20%
    21:00 +36°C° 0 mm 4 mps 741 mmHg 23%
    22:00 +35°C° 0 mm 5 mps 741 mmHg 25%
    23:00 +34°C° 0 mm 5 mps 741 mmHg 32%

    Day after tomorrow, 23 August, Thursday

    Time Temperature Precipitation Wind Pressure Humidity
    00:00 +33°C° 0 mm 6 mps 741 mmHg 40%
    01:00 +32°C° 0 mm 6 mps 740 mmHg 47%
    02:00 +30°C° 0 mm 6 mps 740 mmHg 47%
    03:00 +30°C° 0 mm 6 mps 740 mmHg 48%
    04:00 +30°C° 0 mm 5 mps 740 mmHg 48%
    05:00 +30°C° 0 mm 5 mps 740 mmHg 47%
    06:00 +30°C° 0 mm 5 mps 740 mmHg 46%
    07:00 +30°C° 0 mm 5 mps 740 mmHg 45%
    08:00 +33°C° 0 mm 5 mps 740 mmHg 39%
    09:00 +35°C° 0 mm 5 mps 740 mmHg 33%
    10:00 +37°C° 0 mm 5 mps 741 mmHg 28%
    11:00 +38°C° 0 mm 4 mps 740 mmHg 25%
    12:00 +39°C° 0 mm 3 mps 740 mmHg 22%
    13:00 +40°C° 0 mm 2 mps 740 mmHg 20%
    14:00 +40°C° 0 mm 2 mps 739 mmHg 19%
    15:00 +40°C° 0 mm 2 mps 739 mmHg 17%
    16:00 +42°C° 0 mm 3 mps 739 mmHg 16%
    17:00 +40°C° 0 mm 3 mps 739 mmHg 17%
    18:00 +40°C° 0 mm 3 mps 739 mmHg 18%
    19:00 +40°C° 0 mm 4 mps 739 mmHg 19%
    20:00 +38°C° 0 mm 4 mps 739 mmHg 20%
    21:00 +38°C° 0 mm 4 mps 740 mmHg 22%
    22:00 +37°C° 0 mm 4 mps 740 mmHg 23%
    23:00 +36°C° 0 mm 5 mps 740 mmHg 29%

    24 August, Friday

    Time Temperature Precipitation Wind Pressure Humidity
    00:00 +35°C° 0 mm 6 mps 740 mmHg 34%
    01:00 +34°C° 0 mm 8 mps 740 mmHg 40%
    02:00 +33°C° 0 mm 7 mps 739 mmHg 43%
    03:00 +32°C° 0 mm 7 mps 739 mmHg 46%
    04:00 +30°C° 0 mm 7 mps 739 mmHg 49%
    05:00 +30°C° 0 mm 6 mps 739 mmHg 47%
    06:00 +30°C° 0 mm 5 mps 739 mmHg 46%
    07:00 +32°C° 0 mm 4 mps 739 mmHg 44%
    08:00 +33°C° 0 mm 4 mps 740 mmHg 39%
    09:00 +35°C° 0 mm 4 mps 740 mmHg 34%
    10:00 +37°C° 0 mm 3 mps 740 mmHg 29%
    11:00 +38°C° 0 mm 3 mps 740 mmHg 26%
    12:00 +39°C° 0 mm 2 mps 739 mmHg 23%
    13:00 +40°C° 0 mm 2 mps 739 mmHg 21%
    14:00 +40°C° 0 mm 3 mps 739 mmHg 20%
    15:00 +42°C° 0 mm 3 mps 738 mmHg 18%
    16:00 +42°C° 0 mm 3 mps 738 mmHg 17%
    17:00 +41°C° 0 mm 4 mps 738 mmHg 18%
    18:00 +41°C° 0 mm 5 mps 738 mmHg 19%
    19:00 +40°C° 0 mm 5 mps 738 mmHg 21%
    20:00 +38°C° 0 mm 6 mps 739 mmHg 27%
    21:00 +35°C° 0 mm 7 mps 739 mmHg 34%
    22:00 +34°C° 0 mm 8 mps 740 mmHg 41%
    23:00 +33°C° 0 mm 8 mps 740 mmHg 43%

    25 August, Saturday

    Time Temperature Precipitation Wind Pressure Humidity
    00:00 +32°C° 0 mm 7 mps 740 mmHg 45%
    01:00 +32°C° 0 mm 6 mps 740 mmHg 46%
    02:00 +30°C° 0 mm 6 mps 739 mmHg 47%
    03:00 +30°C° 0 mm 6 mps 739 mmHg 48%
    04:00 +30°C° 0 mm 5 mps 739 mmHg 49%
    05:00 +30°C° 0 mm 5 mps 739 mmHg 48%
    06:00 +30°C° 0 mm 5 mps 740 mmHg 47%
    07:00 +30°C° 0 mm 5 mps 740 mmHg 46%
    08:00 +33°C° 0 mm 5 mps 740 mmHg 40%
    09:00 +34°C° 0 mm 5 mps 740 mmHg 34%
    10:00 +36°C° 0 mm 5 mps 741 mmHg 29%
    11:00 +37°C° 0 mm 4 mps 740 mmHg 26%
    12:00 +38°C° 0 mm 3 mps 740 mmHg 23%
    13:00 +39°C° 0 mm 2 mps 740 mmHg 20%
    14:00 +39°C° 0 mm 2 mps 739 mmHg 19%
    15:00 +40°C° 0 mm 3 mps 739 mmHg 18%
    16:00 +40°C° 0 mm 3 mps 738 mmHg 17%
    17:00 +39°C° 0 mm 3 mps 739 mmHg 17%
    18:00 +39°C° 0 mm 3 mps 739 mmHg 18%
    19:00 +38°C° 0 mm 3 mps 739 mmHg 19%
    20:00 +37°C° 0 mm 4 mps 739 mmHg 23%
    21:00 +36°C° 0 mm 5 mps 740 mmHg 27%
    22:00 +35°C° 0 mm 6 mps 740 mmHg 31%
    23:00 +34°C° 0 mm 6 mps 740 mmHg 35%

    26 August, Sunday

    Time Temperature Precipitation Wind Pressure Humidity
    00:00 +33°C° 0 mm 5 mps 740 mmHg 38%
    01:00 +32°C° 0 mm 5 mps 740 mmHg 42%
    02:00 +32°C° 0 mm 5 mps 740 mmHg 43%
    03:00 +30°C° 0 mm 4 mps 740 mmHg 44%
    04:00 +30°C° 0 mm 4 mps 740 mmHg 44%
    05:00 +30°C° 0 mm 4 mps 740 mmHg 43%
    06:00 +30°C° 0 mm 4 mps 740 mmHg 43%
    07:00 +30°C° 0 mm 4 mps 740 mmHg 42%
    08:00 +33°C° 0 mm 4 mps 741 mmHg 37%
    09:00 +35°C° 0 mm 5 mps 741 mmHg 32%
    10:00 +37°C° 0 mm 5 mps 741 mmHg 27%
    11:00 +38°C° 0 mm 4 mps 741 mmHg 24%
    12:00 +39°C° 0 mm 3 mps 741 mmHg 21%
    13:00 +40°C° 0 mm 1 mps 740 mmHg 18%
    14:00 +40°C° 0 mm 2 mps 740 mmHg 16%
    15:00 +41°C° 0 mm 2 mps 740 mmHg 15%
    16:00 +41°C° 0 mm 2 mps 739 mmHg 14%
    17:00 +40°C° 0 mm 2 mps 739 mmHg 14%
    18:00 +40°C° 0 mm 2 mps 739 mmHg 15%
    19:00 +39°C° 0 mm 2 mps 739 mmHg 15%
    20:00 +38°C° 0 mm 2 mps 740 mmHg 16%
    21:00 +38°C° 0 mm 2 mps 740 mmHg 17%
    22:00 +37°C° 0 mm 2 mps 740 mmHg 18%
    23:00 +36°C° 0 mm 3 mps 740 mmHg 18%
    Show more